[[{"header":{"parameterUnit":"m.s-1","parameterCategory":1,"la1":30.2991,"la2":30.254,"lo1":-89.0895,"lo2":-89.0444,"dy":0.0017,"dx":0.0017,"nx":28,"ny":28,"refTime":"2024-10-20T03:00:00:Z","depth":0,"parameterNumber":2,"parameterNumberName":"U-component_of_WINDS"},"data":[0,0,0,0,0,0,0,0,0,0,0,0,0,0,0,0,0,0,0,0,0,0,0,0,0,0,0,0,0,0,0,0,0,0,0,0,0,0,0,0,0,0,0,0,0,0,0,0,0,0,0,0,0,0,0,0,0,0,-4.1291,-4.1291,0,-4.1327,-4.1328,-4.1328,-4.1171,-4.1167,-4.1162,-4.1158,-4.1197,-4.1202,-4.1207,0,0,0,0,0,0,0,0,0,0,0,0,0,-4.1087,-4.1091,-4.1291,-4.1291,-4.1292,-4.1327,-4.1328,-4.1328,-4.1172,-4.1166,-4.1161,-4.1156,-4.1195,-4.1201,-4.1208,0,0,0,0,0,0,0,0,0,0,0,0,0,-4.1155,-4.1093,-4.1291,-4.1218,-4.1212,-4.1327,-4.1328,-4.1328,-4.1173,-4.1166,-4.1159,-4.1153,-4.1193,-4.1201,-4.1209,-4.1396,0,0,-4.1233,-4.1236,0,0,0,0,0,0,0,0,-4.1151,-4.1162,-4.1228,-4.1223,-4.1217,-4.1238,-4.127,-4.1351,-4.1175,-4.1188,-4.1158,-4.115,-4.1216,-4.1222,-4.1244,-4.1398,-4.1399,-4.1234,-4.1238,-4.1242,-4.1244,0,0,0,0,0,0,0,-4.1147,-4.116,-4.1305,-4.123,-4.1222,-4.1184,-4.1186,-4.1284,-4.124,-4.1186,-4.1175,-4.1181,-4.1211,-4.1236,-4.1243,-4.14,-4.1233,-4.1241,-4.1245,-4.1249,-4.1709,-4.1716,0,0,0,0,0,0,-4.1151,-4.1157,-4.1304,-4.1306,-4.1166,-4.1193,-4.1195,-4.1238,-4.1239,-4.1232,-4.1187,-4.1174,-4.1226,-4.1234,-4.1244,-4.1464,-4.1242,-4.1249,-4.1254,-4.1702,-4.1711,-4.1719,0,0,0,0,0,0,-4.1148,-4.1166,-4.1303,-4.1229,-4.1243,-4.1204,-4.1253,-4.1242,-4.1267,-4.1239,-4.1231,-4.1221,-4.1221,-4.1233,-4.1359,-4.1463,-4.1253,-4.126,-4.1693,-4.1704,-4.1715,-4.1905,0,0,0,0,0,0,-4.1142,-4.1166,-4.1237,-4.1231,-4.1248,-4.1418,-4.1259,-4.1248,-4.1281,-4.1264,-4.1269,-4.1263,-4.1217,-4.1348,-4.1367,-4.147,-4.1266,-4.1683,-4.1698,-4.1711,-4.189,-4.1922,-4.1949,0,0,0,0,0,-4.1136,-4.1289,-4.1241,-4.126,-4.1335,-4.1424,-4.1433,-4.1376,-4.129,-4.1361,-4.1343,-4.1263,-4.1448,-4.1362,-4.1382,-4.149,-4.1677,-4.1694,-4.171,-4.1876,-4.1915,-4.1948,0,0,0,0,0,0,-4.1308,-4.1287,-4.1234,-4.139,-4.141,-4.1397,-4.1485,-4.1419,-4.1465,-4.1447,-4.1374,-4.1377,-4.1516,-4.1515,-4.1419,-4.1671,-4.1547,-4.1569,-4.1667,-4.1704,-4.1733,-4.1731,-4.1273,0,0,0,0,0,-4.1364,-4.1438,-4.1415,-4.1555,-4.1568,-4.1525,-4.1562,-4.1516,-4.1534,-4.1542,-4.1533,-4.1554,-4.1616,-4.166,-4.1716,-4.1887,-4.1887,-4.1971,-4.2001,-4.2025,-4.2046,-4.2137,-4.2174,-4.1774,-4.1773,-4.1773,0,0,-4.1482,-4.1479,-4.153,-4.159,-4.16,-4.1678,-4.1533,-4.1622,-4.1679,-4.1555,-4.1674,-4.1668,-4.1687,-4.1837,-4.1902,-4.184,-4.2156,-4.2047,-4.2066,-4.2073,-4.2158,-4.2196,-4.223,-4.1785,-4.1783,-4.1781,0,0,-4.1735,-4.174,-4.1857,-4.187,-4.1887,-4.1857,-4.1885,-4.1883,-4.1874,-4.1992,-4.19,-4.1967,-4.2076,-4.2093,-4.2117,-4.2375,-4.2303,-4.2395,-4.2551,-4.2641,-4.2673,-4.27,-4.2794,-4.2828,-4.2415,-4.2415,-4.2416,0,-4.1879,-4.1992,-4.1926,-4.2021,-4.205,-4.194,-4.2059,-4.2074,-4.2109,-4.2132,-4.2061,-4.2196,-4.2201,-4.2353,-4.2416,-4.2438,-4.2469,-4.2396,-4.2673,-4.27,-4.2725,-4.2814,-4.2849,-4.2426,-4.2425,-4.2424,-4.2423,0,-4.2168,-4.2249,-4.2341,-4.2377,-4.2416,-4.2523,-4.2473,-4.2521,-4.2471,-4.2449,-4.257,-4.2571,-4.2626,-4.2658,-4.2611,-4.2805,-4.2766,-4.2685,-4.256,-4.2776,-4.2858,-4.2891,-4.2443,-4.2439,-4.2435,-4.2432,0,0,-4.2534,-4.2531,-4.2566,-4.2581,-4.2591,-4.2651,-4.2752,-4.2805,-4.2848,-4.2875,-4.2958,-4.3053,-4.2978,-4.3005,-4.2958,-4.3036,-4.3242,-4.2946,-4.2945,-4.3003,-4.3457,-4.3519,-4.3559,-4.3193,-4.32,-4.3204,-4.3456,0,-4.2784,-4.2956,-4.2899,-4.3075,-4.3148,-4.3044,-4.3131,-4.3147,-4.3129,-4.3188,-4.3167,-4.3236,-4.3132,-4.3147,-4.322,-4.3202,-4.3333,-4.3183,-4.3272,-4.3276,-4.3273,-4.3602,-4.3668,-4.3905,-4.3487,-4.3493,-4.3496,0,-4.3099,-4.3138,-4.3321,-4.3317,-4.3346,-4.3426,-4.347,-4.3528,-4.3543,-4.3524,-4.3553,-4.3489,-4.3588,-4.3461,-4.3597,-4.3496,-4.3529,-4.3525,-4.3533,-4.3541,-4.3401,-4.3621,-4.3979,-4.4016,-4.3546,-4.3542,-4.3538,0,-4.3349,-4.3447,-4.3569,-4.3585,-4.3584,-4.3643,-4.3645,-4.3653,-4.3688,-4.3726,-4.3748,-4.3797,-4.3825,-4.3865,-4.3816,-4.3728,-4.396,-4.3828,-4.3947,-4.3949,-4.4003,-4.4001,-4.4374,-4.4021,-4.4021,-4.402,-4.4019,0,-4.3635,-4.3752,-4.3682,-4.3758,-4.3884,-4.3817,-4.3945,-4.3935,-4.3943,-4.4015,-4.3927,-4.3996,-4.3926,-4.3989,-4.3952,-4.407,-4.4083,-4.4071,-4.406,-4.4081,-4.4082,-4.4103,-4.4086,-4.4029,-4.4027,-4.4025,-4.4024,0,-4.3938,-4.3895,-4.4022,-4.401,-4.4009,-4.4104,-4.4093,-4.4163,-4.4137,-4.4229,-4.4247,-4.4207,-4.4277,-4.4231,-4.4301,-4.4275,-4.4432,-4.4396,-4.4427,-4.4418,-4.4541,-4.4531,-4.4942,-4.4993,-4.4606,-4.4609,-4.4612,0,-4.4124,-4.4211,-4.4208,-4.425,-4.4258,-4.4326,-4.4361,-4.4297,-4.4338,-4.4361,-4.4428,-4.4489,-4.4536,-4.4651,-4.4629,-4.4682,-4.4649,-4.4789,-4.4657,-4.4674,-4.4653,-4.465,-4.4659,-4.4817,-4.4822,-4.4826,-4.4829,0,-4.446,-4.4435,-4.4489,-4.4536,-4.458,-4.4614,-4.4641,-4.468,-4.4616,-4.4666,-4.4735,-4.4771,-4.4842,-4.4905,-4.4949,-4.4951,-4.4881,-4.487,-4.4901,-4.4924,-4.4938,-4.4934,-4.4502,-4.4862,-4.4858,-4.4856,-4.4854,-4.4853,-4.4711,-4.4784,-4.4793,-4.4856,-4.4869,-4.4896,-4.4961,-4.4943,-4.5,-4.5052,-4.5011,-4.5094,-4.5106,-4.5158,-4.5169,-4.5233,-4.5176,-4.522,-4.5232,-4.5244,-4.5262,-4.4926,-4.5241,-4.524,-4.5239,-4.5238,-4.5237,0,-4.5044,-4.5044,-4.5103,-4.5143,-4.5193,-4.512,-4.5145,-4.5192,-4.5266,-4.5283,-4.533,-4.541,-4.547,-4.5452,-4.5506,-4.5561,-4.553,-4.5577,-4.5574,-4.5576,-4.5309,-4.5278,-4.5602,-4.5601,-4.5601,-4.5601,-4.5601,-4.5601,-4.5223,-4.5342,-4.5318,-4.5443,-4.5441,-4.5522,-4.5543,-4.5568,-4.5581,-4.5674,-4.5724,-4.5711,-4.5714,-4.5766,-4.5818,-4.5811,-4.5836,-4.5896,-4.5878,-4.563,-4.5594,-4.556,-4.5531,-4.5902,-4.5902,-4.6139,-4.6141,-4.6143]},{"header":{"parameterUnit":"m.s-1","parameterCategory":1,"la1":30.2991,"la2":30.254,"lo1":-89.0895,"lo2":-89.0444,"dy":0.0017,"dx":0.0017,"nx":28,"ny":28,"refTime":"2024-10-20T03:00:00:Z","depth":0,"parameterNumber":3,"parameterNumberName":"V-component_of_WINDS"},"data":[0,0,0,0,0,0,0,0,0,0,0,0,0,0,0,0,0,0,0,0,0,0,0,0,0,0,0,0,0,0,0,0,0,0,0,0,0,0,0,0,0,0,0,0,0,0,0,0,0,0,0,0,0,0,0,0,0,0,-3.2428,-3.2427,0,-3.2417,-3.2416,-3.2416,-3.237,-3.2369,-3.2368,-3.2367,-3.2355,-3.2356,-3.2356,0,0,0,0,0,0,0,0,0,0,0,0,0,-3.2406,-3.2407,-3.2428,-3.2427,-3.2427,-3.2417,-3.2416,-3.2416,-3.2371,-3.2369,-3.2368,-3.2367,-3.2355,-3.2355,-3.2356,0,0,0,0,0,0,0,0,0,0,0,0,0,-3.2407,-3.2407,-3.2428,-3.2403,-3.2401,-3.2417,-3.2416,-3.2416,-3.2371,-3.2369,-3.2368,-3.2366,-3.2354,-3.2355,-3.2356,-3.2394,0,0,-3.2359,-3.236,0,0,0,0,0,0,0,0,-3.2407,-3.2408,-3.2407,-3.2405,-3.2402,-3.2393,-3.2404,-3.2409,-3.2371,-3.2382,-3.2367,-3.2366,-3.2369,-3.2369,-3.237,-3.2394,-3.2393,-3.2359,-3.236,-3.236,-3.2361,0,0,0,0,0,0,0,-3.2407,-3.2408,-3.2423,-3.2407,-3.2404,-3.2392,-3.239,-3.2405,-3.2385,-3.2381,-3.2378,-3.2377,-3.2367,-3.2369,-3.2369,-3.2393,-3.2359,-3.236,-3.2361,-3.2361,-3.2443,-3.2445,0,0,0,0,0,0,-3.2411,-3.2409,-3.2423,-3.2423,-3.2401,-3.2394,-3.2392,-3.2398,-3.2384,-3.2381,-3.2379,-3.2375,-3.2368,-3.2368,-3.2369,-3.241,-3.236,-3.2361,-3.2362,-3.2442,-3.2444,-3.2445,0,0,0,0,0,0,-3.2411,-3.2413,-3.2424,-3.2415,-3.2415,-3.2396,-3.2403,-3.2398,-3.24,-3.2382,-3.2378,-3.2384,-3.2367,-3.2367,-3.2387,-3.2409,-3.2362,-3.2363,-3.244,-3.2442,-3.2444,-3.2493,0,0,0,0,0,0,-3.241,-3.2413,-3.2428,-3.2416,-3.2416,-3.2444,-3.2404,-3.2399,-3.2402,-3.2397,-3.2387,-3.2383,-3.2366,-3.2386,-3.2388,-3.2409,-3.2363,-3.2438,-3.2441,-3.2444,-3.249,-3.2497,-3.2503,0,0,0,0,0,-3.241,-3.2443,-3.2429,-3.2431,-3.2435,-3.2445,-3.2445,-3.2425,-3.2404,-3.2418,-3.2406,-3.2384,-3.2406,-3.2389,-3.2391,-3.2412,-3.2436,-3.244,-3.2443,-3.2487,-3.2496,-3.2503,0,0,0,0,0,0,-3.2459,-3.2441,-3.2425,-3.2456,-3.2452,-3.2438,-3.2455,-3.2436,-3.2438,-3.2434,-3.2408,-3.2405,-3.2429,-3.2423,-3.2403,-3.2446,-3.2417,-3.2421,-3.2449,-3.2458,-3.2464,-3.2465,-3.2364,0,0,0,0,0,-3.2473,-3.2484,-3.2467,-3.2496,-3.2495,-3.2475,-3.2479,-3.2463,-3.2459,-3.2457,-3.2447,-3.2443,-3.2448,-3.2453,-3.2458,-3.2489,-3.2484,-3.2504,-3.2511,-3.2517,-3.252,-3.2533,-3.2541,-3.2457,-3.2457,-3.2457,0,0,-3.2503,-3.2494,-3.2503,-3.2505,-3.2501,-3.2511,-3.2474,-3.2488,-3.2495,-3.2459,-3.2477,-3.2469,-3.2463,-3.2488,-3.2498,-3.2483,-3.2542,-3.2521,-3.2526,-3.2526,-3.2538,-3.2546,-3.2553,-3.2459,-3.2459,-3.2459,0,0,-3.2561,-3.2557,-3.2579,-3.2575,-3.2568,-3.2555,-3.256,-3.2548,-3.2541,-3.2558,-3.2531,-3.2538,-3.255,-3.2545,-3.2545,-3.2599,-3.2577,-3.2601,-3.2637,-3.265,-3.2656,-3.2662,-3.2679,-3.2686,-3.2605,-3.2605,-3.2605,0,-3.2599,-3.2615,-3.2592,-3.2607,-3.2607,-3.2575,-3.2595,-3.2592,-3.2588,-3.2588,-3.2572,-3.2583,-3.2577,-3.2599,-3.2612,-3.2614,-3.2617,-3.2602,-3.2657,-3.2663,-3.2668,-3.2684,-3.269,-3.2608,-3.2608,-3.2607,-3.2607,0,-3.2659,-3.267,-3.2688,-3.2684,-3.2687,-3.2704,-3.2683,-3.2689,-3.2672,-3.266,-3.2676,-3.2667,-3.2668,-3.2673,-3.2657,-3.2692,-3.2682,-3.2662,-3.2632,-3.2679,-3.2693,-3.2699,-3.2612,-3.2611,-3.261,-3.261,0,0,-3.275,-3.2731,-3.2738,-3.2734,-3.2723,-3.2731,-3.2746,-3.2746,-3.275,-3.2748,-3.2758,-3.2768,-3.2748,-3.2747,-3.273,-3.2742,-3.2783,-3.272,-3.2719,-3.273,-3.2817,-3.2831,-3.2839,-3.2769,-3.277,-3.2771,-3.2817,0,-3.2804,-3.2829,-3.2808,-3.2836,-3.2844,-3.2812,-3.2825,-3.2819,-3.2808,-3.2812,-3.2799,-3.2805,-3.278,-3.2779,-3.2789,-3.2776,-3.2799,-3.2772,-3.2776,-3.2777,-3.2777,-3.2847,-3.2862,-3.2906,-3.2823,-3.2824,-3.2824,0,-3.2871,-3.287,-3.2899,-3.2884,-3.2886,-3.2898,-3.2895,-3.2901,-3.2893,-3.2883,-3.2881,-3.2861,-3.2872,-3.2844,-3.2859,-3.2841,-3.2841,-3.2834,-3.2835,-3.2834,-3.2802,-3.2845,-3.292,-3.2926,-3.2833,-3.2833,-3.2832,0,-3.293,-3.2937,-3.2954,-3.2952,-3.2936,-3.2944,-3.2938,-3.2928,-3.2929,-3.2926,-3.2926,-3.2925,-3.2924,-3.2924,-3.2902,-3.2884,-3.2919,-3.2889,-3.291,-3.291,-3.2918,-3.2917,-3.2992,-3.2921,-3.2921,-3.2921,-3.2921,0,-3.2992,-3.3011,-3.298,-3.2991,-3.3009,-3.2985,-3.3004,-3.2994,-3.2985,-3.2991,-3.2965,-3.2971,-3.2944,-3.2947,-3.2931,-3.2944,-3.2945,-3.2936,-3.2931,-3.2937,-3.2938,-3.2936,-3.2932,-3.2923,-3.2922,-3.2922,-3.2922,0,-3.3062,-3.3043,-3.3059,-3.3041,-3.3037,-3.3052,-3.3036,-3.3044,-3.303,-3.3039,-3.3039,-3.3018,-3.302,-3.2999,-3.2998,-3.2986,-3.3006,-3.2997,-3.3009,-3.3005,-3.3026,-3.3024,-3.3101,-3.3109,-3.3035,-3.3036,-3.3036,0,-3.3102,-3.3115,-3.3098,-3.3101,-3.3095,-3.31,-3.31,-3.3076,-3.3077,-3.3067,-3.3075,-3.3075,-3.3074,-3.3079,-3.3062,-3.306,-3.305,-3.3077,-3.3049,-3.3054,-3.3047,-3.3046,-3.3046,-3.3082,-3.3083,-3.3084,-3.3085,0,-3.3174,-3.3163,-3.3165,-3.3162,-3.3163,-3.316,-3.3155,-3.3158,-3.3131,-3.3133,-3.3135,-3.3134,-3.3132,-3.3131,-3.3126,-3.3118,-3.3096,-3.3093,-3.3097,-3.3103,-3.3109,-3.3104,-3.3023,-3.3091,-3.3091,-3.309,-3.309,-3.309,-3.3228,-3.3237,-3.3226,-3.3228,-3.3221,-3.3216,-3.3222,-3.3209,-3.321,-3.3206,-3.3191,-3.3195,-3.3183,-3.3174,-3.3168,-3.3169,-3.3156,-3.3163,-3.3164,-3.3165,-3.3168,-3.311,-3.3168,-3.3168,-3.3168,-3.3168,-3.3168,0,-3.3297,-3.3287,-3.3289,-3.3282,-3.3283,-3.3263,-3.3256,-3.3257,-3.3261,-3.3252,-3.3251,-3.3252,-3.3251,-3.3233,-3.323,-3.3234,-3.3224,-3.3234,-3.3232,-3.323,-3.3182,-3.3177,-3.3242,-3.3242,-3.3242,-3.3242,-3.3242,-3.3242,-3.3332,-3.3345,-3.3333,-3.3342,-3.3332,-3.3335,-3.3333,-3.3327,-3.332,-3.3322,-3.3321,-3.3309,-3.3297,-3.3291,-3.3289,-3.3283,-3.3282,-3.3295,-3.3287,-3.3241,-3.3234,-3.3227,-3.3223,-3.3296,-3.3296,-3.3335,-3.3335,-3.3335]}]]